Wind_Speed
20 21 21 21 20 20 21 21 20 20 21 20 18 14 12 17 19 21 18 28 31 35 37 39 39 39 39 39 40 41 44 48 46 44 42 39 29 22 37 50 45 53 49 49 53
23 21 21 21 21 22 23 24 24 21 20 19 20 19 19 14 15 21 26 25 24 31 36 39 41 43 43 42 42 42 44 41 39 39 37 34 36 28 43 55 41 45 51 47 56
24 24 24 24 25 25 25 27 27 26 25 23 21 21 21 20 20 17 22 25 27 28 32 38 39 43 45 46 45 45 41 41 42 40 41 38 43 43 53 52 42 41 43 44 48
25 25 27 28 29 30 30 30 30 31 29 28 27 24 23 21 27 17 23 27 29 30 28 35 37 39 43 45 46 47 45 44 44 45 46 50 48 47 48 46 40 44 46 44 51
30 31 31 32 33 34 34 35 35 35 36 35 31 26 24 22 28 21 23 24 27 29 30 32 36 37 39 42 45 48 48 49 49 49 49 49 44 44 45 46 44 44 47 46 49
32 31 32 35 36 37 37 38 38 39 40 38 35 34 29 26 26 27 27 28 28 29 31 32 32 34 38 40 45 47 47 50 49 50 51 50 46 45 45 48 48 46 47 47 48
37 35 34 35 36 37 38 40 40 39 42 43 40 38 36 30 27 31 30 31 28 29 30 33 33 34 36 38 43 46 49 48 52 47 47 50 47 46 49 50 50 48 46 47 47
45 45 44 46 49 48 46 47 47 45 43 43 42 44 35 34 33 37 35 33 29 31 30 34 36 36 33 35 38 44 48 49 44 45 46 46 46 47 48 50 50 50 49 47 49
51 53 54 51 49 51 48 49 48 47 47 45 44 41 34 34 32 38 38 35 33 33 33 34 37 36 34 36 37 41 41 43 41 41 41 45 46 45 43 46 48 50 49 50 47
55 54 53 53 53 54 52 52 52 52 49 47 44 42 40 36 36 37 42 38 37 37 37 37 35 35 35 38 38 37 36 37 34 29 32 43 46 39 40 41 45 47 48 48 49
61 57 54 55 56 56 53 53 56 53 52 49 46 42 39 37 35 40 44 45 43 42 40 37 37 39 36 33 30 29 28 30 29 26 29 32 36 32 33 35 38 44 46 49 50
64 62 61 60 60 60 57 56 53 54 58 52 41 45 39 45 43 43 48 49 46 41 39 41 39 36 31 29 31 30 29 22 23 18 31 23 29 27 26 29 31 34 38 40 44
65 67 66 63 62 62 58 60 54 52 56 48 46 46 44 52 51 52 50 46 46 41 39 40 36 29 32 36 36 34 36 25 21 31 28 26 32 22 19 26 31 30 33 34 38
68 69 69 67 65 65 61 59 53 56 57 48 48 47 51 52 53 51 53 46 45 42 38 39 35 32 36 38 35 33 35 28 28 26 22 20 17 16 13 20 26 29 29 28 28
73 74 75 76 69 57 54 52 52 54 58 42 40 41 38 41 31 32 35 48 43 40 40 38 38 37 39 38 32 29 25 33 30 25 28 28 24 14 16 19 25 22 21 21 21
78 78 75 69 60 58 56 56 56 54 57 44 25 28 33 36 33 28 30 39 33 39 38 35 33 36 32 31 30 28 28 22 24 24 34 32 26 15 20 17 17 22 17 17 16
80 74 67 67 61 61 58 54 51 50 42 36 15 15 24 31 23 25 33 35 35 46 43 37 39 34 33 30 32 32 30 27 27 30 31 22 23 19 28 27 15 19 23 15 20
77 72 66 64 61 55 50 46 46 43 40 32 25 28 30 23 30 28 37 43 29 40 38 38 38 36 36 30 31 32 35 31 26 24 22 18 23 19 28 28 27 26 19 21 23
75 67 68 65 57 49 43 44 40 36 28 24 22 39 29 31 35 36 44 38 36 34 41 39 36 35 32 36 33 30 35 29 27 27 27 22 23 31 27 37 28 27 26 28 20
73 69 66 59 47 39 40 36 32 23 18 22 29 28 31 23 35 27 33 46 45 24 32 38 38 35 38 29 37 35 23 28 35 25 23 26 21 27 24 26 31 34 25 29 31
74 67 60 51 40 28 29 20 14 12 16 16 17 25 30 28 36 34 35 44 40 39 30 38 35 36 37 42 34 42 38 31 29 36 28 28 29 42 35 35 24 26 32 35 34
66 60 56 49 28 20 15 16 24 20 19 27 24 27 35 35 34 25 32 30 20 48 41 32 38 30 34 27 24 29 38 33 33 29 34 29 36 28 35 23 26 30 27 29 22
63 60 48 19 18 16 18 16 18 17 16 26 20 27 20 37 29 17 27 27 45 33 43 38 46 34 38 37 31 36 29 35 24 29 33 41 39 22 23 27 28 36 31 28 25
65 54 27 9 16 24 24 11 17 17 15 17 21 22 32 33 30 19 25 24 41 39 41 42 44 43 38 35 29 32 34 37 30 33 33 37 44 41 24 31 28 34 25 24 19
56 35 22 13 24 25 22 15 18 17 20 16 19 18 28 30 20 20 19 23 42 41 38 35 41 37 25 38 38 30 33 38 39 43 32 24 39 36 46 42 38 43 40 32 32
46 32 15 13 11 14 15 17 18 16 11 18 4 16 23 21 18 25 26 22 39 32 34 31 39 33 21 23 37 26 31 32 34 46 17 15 13 25 32 22 46 42 37 37 38
35 21 15 5 5 7 11 11 12 13 6 6 9 5 19 23 19 19 23 19 31 46 31 33 38 37 39 37 23 30 28 27 18 17 23 3 21 22 27 15 21 21 32 31 31
Wind_Direction
338 338 337 337 336 333 331 331 329 328 324 324 324 318 311 309 299 283 278 261 254 247 248 242 237 237 238 237 238 238 239 240 240 242 240 235 220 232 242 249 238 240 241 239 244
328 328 329 328 329 329 327 323 323 319 317 313 310 309 312 310 286 294 272 279 265 252 243 242 240 237 235 234 236 239 242 243 242 240 239 235 229 221 242 246 246 247 250 248 254
326 325 323 322 324 323 320 318 315 315 312 307 302 297 298 298 298 290 287 275 269 260 249 243 241 241 238 235 234 236 238 238 239 240 236 232 224 219 234 246 247 247 249 252 252
318 316 316 315 316 315 315 313 312 313 311 307 304 297 298 288 291 282 286 283 276 262 256 245 243 240 242 241 239 237 235 237 238 237 235 239 238 241 246 250 249 250 246 243 250
310 309 310 313 313 312 310 309 306 306 304 303 300 294 293 286 277 287 277 277 275 263 254 246 243 242 240 241 241 239 237 236 236 238 242 243 244 243 243 248 246 246 252 252 253
321 316 315 316 315 312 310 308 304 304 305 304 301 297 299 278 283 277 271 268 268 262 254 249 246 244 242 240 238 239 239 239 240 237 240 243 241 244 245 247 246 244 247 251 255
326 319 317 315 314 313 311 307 304 301 300 300 298 295 297 275 275 270 265 264 265 261 252 247 242 243 241 241 241 238 239 239 240 243 242 245 243 242 244 246 248 247 246 250 252
326 322 317 313 310 308 307 304 306 304 299 295 293 292 290 278 284 268 264 260 256 256 249 245 243 243 243 241 242 241 241 242 242 243 243 245 241 242 243 245 247 247 247 245 250
328 325 321 315 310 308 305 302 298 294 293 288 289 285 281 273 267 265 266 264 252 250 250 242 243 240 239 240 238 241 243 242 241 242 244 245 244 242 245 247 247 248 247 248 243
323 320 316 311 308 308 301 299 296 293 288 286 284 280 271 267 260 256 257 256 254 245 246 244 238 240 236 237 239 242 241 242 242 237 238 245 245 244 245 247 250 252 251 250 248
321 317 314 310 308 306 302 298 294 291 293 287 280 280 274 266 259 253 256 255 251 244 244 245 241 242 238 239 241 241 242 243 241 218 255 258 246 246 243 246 248 252 251 252 251
319 317 313 310 307 305 300 297 293 291 293 292 280 280 269 262 253 245 251 253 251 250 246 242 240 237 235 231 231 228 223 217 253 224 222 239 255 250 246 247 248 252 258 258 256
318 315 312 308 307 304 302 298 296 290 290 292 284 274 264 257 252 249 248 255 253 244 241 241 242 234 228 227 226 222 216 206 204 219 211 232 249 255 250 245 243 243 252 261 265
314 312 309 307 307 306 304 302 297 288 287 298 277 269 263 258 256 254 251 253 250 246 237 236 234 224 225 226 225 224 216 207 216 206 229 260 262 280 270 263 250 246 250 257 260
314 312 309 308 309 307 306 298 293 284 282 289 272 273 269 266 258 253 255 251 246 245 235 237 230 221 222 222 214 220 224 221 211 219 221 215 231 192 221 232 264 253 248 253 254
315 313 313 313 313 307 299 294 289 286 285 290 273 274 270 272 274 263 255 254 228 234 231 230 227 222 220 219 213 213 198 221 228 224 234 231 223 198 231 244 264 272 249 239 205
318 319 318 316 311 304 299 296 291 288 286 287 272 266 257 270 240 233 235 242 235 223 220 218 218 213 198 215 213 204 199 209 218 217 232 233 226 204 231 226 183 222 255 238 216
319 319 316 311 307 306 303 295 291 293 284 279 230 223 241 242 239 210 218 219 221 223 221 214 211 206 197 206 210 210 209 203 215 224 234 238 226 215 244 254 235 216 230 238 247
320 317 311 312 314 310 302 295 298 293 285 277 260 217 225 272 257 250 205 220 230 224 219 215 216 208 196 210 196 207 219 204 203 212 224 210 214 233 209 231 246 247 250 246 236
318 313 315 317 314 308 303 305 298 283 264 237 239 218 227 231 248 228 225 213 223 203 217 212 208 200 204 200 210 208 219 217 203 222 229 207 209 230 216 247 253 259 246 243 247
319 321 317 317 318 304 299 308 310 242 235 244 242 230 220 251 238 243 214 225 192 195 214 209 203 202 192 207 213 201 203 210 218 212 230 217 207 212 215 215 194 254 248 241 252
322 320 320 318 312 298 299 304 305 275 239 257 235 223 219 242 200 240 232 225 223 199 202 206 199 197 194 197 219 212 202 206 209 203 217 238 232 231 221 207 205 219 234 255 243
323 321 321 317 292 293 278 263 281 278 280 224 237 240 222 236 216 232 252 225 212 199 197 198 198 212 183 192 196 197 200 215 213 205 214 227 226 221 190 219 238 221 239 196 280
326 327 324 225 240 256 270 259 245 242 268 259 243 239 235 214 201 226 245 224 200 201 203 212 197 196 196 201 202 189 195 195 221 237 227 220 227 238 254 243 253 267 195 247 233
331 329 315 257 236 240 263 250 256 250 254 254 260 229 203 193 222 221 237 213 196 193 194 203 205 198 193 192 196 189 204 201 211 222 223 235 228 229 237 248 244 249 255 253 258
332 328 319 277 254 245 241 243 246 246 270 242 255 213 222 234 214 213 214 212 200 201 200 184 178 186 232 207 180 174 199 221 227 226 221 205 228 217 241 239 240 244 255 256 258
336 334 341 302 212 237 242 242 225 256 252 241 321 172 198 215 198 186 196 181 192 205 195 185 188 195 200 211 196 192 194 209 217 224 230 235 250 247 248 252 247 241 256 267 264
Height
5827 5825 5822 5819 5816 5813 5810 5808 5806 5805 5803 5801 5800 5798 5796 5794 5792 5790 5793 5790 5792 5793 5794 5797 5799 5802 5805 5809 5811 5812 5814 5817 5824 5829 5835 5841 5844 5851 5845 5841 5851 5853 5859 5861 5856
5825 5822 5819 5816 5813 5811 5808 5805 5802 5800 5798 5796 5794 5792 5791 5789 5787 5786 5784 5784 5785 5785 5786 5788 5791 5793 5797 5800 5802 5804 5807 5815 5820 5821 5826 5831 5836 5841 5837 5831 5843 5845 5848 5853 5845
5822 5819 5815 5813 5809 5806 5803 5801 5798 5795 5793 5791 5788 5786 5784 5783 5782 5781 5777 5775 5776 5777 5778 5779 5781 5784 5788 5791 5794 5797 5803 5806 5810 5814 5816 5819 5822 5823 5824 5826 5836 5839 5843 5844 5844
5818 5814 5810 5807 5804 5801 5797 5794 5791 5789 5787 5784 5781 5779 5778 5777 5774 5775 5772 5770 5768 5768 5769 5771 5773 5776 5779 5783 5786 5789 5794 5797 5802 5804 5805 5806 5812 5818 5819 5823 5829 5828 5832 5836 5834
5811 5808 5805 5802 5798 5795 5791 5788 5785 5782 5778 5776 5773 5772 5770 5770 5767 5767 5766 5763 5762 5762 5762 5763 5765 5768 5770 5774 5777 5780 5785 5787 5791 5794 5797 5800 5806 5810 5814 5815 5819 5821 5824 5827 5829
5807 5803 5800 5796 5792 5788 5784 5779 5776 5773 5770 5768 5765 5762 5761 5762 5759 5757 5756 5755 5754 5754 5754 5755 5758 5761 5762 5764 5768 5771 5775 5779 5783 5786 5789 5792 5798 5801 5806 5805 5808 5813 5817 5818 5821
5801 5797 5792 5787 5783 5779 5774 5770 5766 5763 5760 5757 5754 5752 5752 5750 5749 5747 5747 5745 5746 5744 5746 5747 5749 5751 5754 5757 5760 5762 5765 5769 5771 5779 5782 5783 5789 5793 5795 5796 5798 5805 5810 5811 5813
5794 5789 5784 5779 5773 5769 5764 5760 5756 5752 5748 5745 5742 5740 5742 5736 5738 5736 5736 5735 5736 5735 5736 5738 5739 5741 5744 5749 5752 5754 5756 5760 5767 5768 5773 5774 5781 5784 5786 5787 5791 5794 5798 5804 5805
5785 5779 5773 5768 5762 5757 5752 5747 5743 5740 5736 5731 5729 5725 5729 5725 5726 5725 5725 5726 5725 5726 5725 5726 5730 5732 5736 5738 5742 5744 5749 5752 5757 5761 5764 5766 5770 5776 5778 5779 5782 5784 5789 5792 5799
5774 5768 5761 5754 5748 5742 5737 5733 5728 5725 5721 5718 5714 5715 5712 5710 5710 5711 5711 5713 5715 5715 5715 5715 5719 5724 5726 5728 5732 5737 5742 5746 5749 5755 5755 5757 5760 5766 5770 5772 5774 5774 5778 5782 5787
5762 5754 5746 5740 5733 5727 5722 5716 5712 5709 5706 5705 5700 5700 5696 5697 5697 5698 5698 5698 5700 5702 5704 5708 5709 5712 5719 5723 5729 5733 5736 5740 5744 5748 5751 5749 5753 5757 5760 5763 5764 5764 5766 5770 5776
5747 5740 5731 5724 5717 5711 5704 5698 5691 5687 5688 5688 5689 5683 5684 5679 5680 5682 5681 5683 5686 5691 5695 5696 5697 5705 5713 5716 5720 5724 5728 5736 5743 5745 5745 5746 5745 5750 5752 5754 5756 5757 5757 5760 5763
5733 5725 5717 5709 5701 5694 5688 5681 5676 5667 5664 5676 5670 5669 5668 5659 5662 5662 5668 5671 5674 5678 5682 5686 5693 5698 5702 5705 5709 5715 5721 5729 5736 5739 5740 5741 5740 5744 5748 5749 5749 5750 5750 5751 5753
5718 5709 5701 5694 5683 5677 5669 5663 5658 5648 5640 5657 5648 5650 5646 5645 5644 5650 5650 5658 5661 5667 5673 5677 5683 5687 5691 5696 5703 5708 5716 5722 5728 5730 5735 5736 5738 5742 5743 5744 5745 5745 5744 5745 5746
5700 5691 5684 5672 5671 5656 5653 5643 5638 5631 5619 5635 5625 5627 5632 5632 5634 5635 5639 5639 5650 5656 5661 5669 5673 5678 5681 5688 5696 5704 5712 5715 5720 5725 5728 5729 5732 5737 5739 5739 5739 5741 5739 5740 5740
5682 5672 5664 5657 5647 5645 5633 5624 5618 5615 5606 5620 5618 5619 5620 5620 5622 5625 5628 5628 5641 5644 5651 5659 5665 5670 5677 5684 5691 5700 5706 5711 5714 5718 5717 5722 5728 5733 5736 5737 5736 5734 5737 5738 5738
5666 5655 5644 5637 5632 5619 5614 5609 5604 5599 5600 5606 5609 5611 5610 5612 5610 5615 5618 5617 5627 5631 5637 5648 5654 5662 5670 5678 5684 5690 5698 5704 5708 5710 5711 5719 5722 5728 5728 5731 5732 5732 5731 5735 5734
5648 5636 5627 5616 5609 5601 5595 5590 5586 5586 5584 5588 5597 5598 5598 5594 5600 5600 5610 5611 5618 5625 5634 5640 5647 5654 5663 5669 5677 5682 5689 5695 5701 5706 5712 5716 5716 5724 5723 5724 5724 5729 5730 5729 5730
5631 5620 5606 5600 5591 5583 5580 5574 5572 5570 5573 5577 5580 5585 5589 5592 5592 5591 5598 5605 5613 5619 5625 5634 5642 5652 5657 5666 5672 5678 5681 5692 5698 5703 5702 5709 5716 5713 5717 5716 5720 5725 5728 5724 5728
5612 5604 5588 5582 5577 5569 5564 5563 5559 5559 5559 5564 5566 5574 5578 5582 5579 5586 5588 5594 5602 5612 5622 5629 5637 5643 5651 5658 5665 5672 5682 5686 5688 5694 5698 5704 5710 5705 5710 5713 5715 5714 5720 5721 5720
5593 5585 5573 5568 5564 5559 5555 5555 5553 5553 5554 5554 5557 5563 5568 5570 5572 5575 5586 5586 5596 5598 5614 5622 5627 5634 5640 5647 5656 5665 5669 5679 5685 5689 5692 5696 5695 5699 5701 5702 5705 5709 5710 5712 5714
5579 5570 5558 5555 5554 5550 5550 5550 5549 5550 5549 5545 5551 5556 5559 5558 5565 5570 5579 5583 5580 5594 5603 5616 5620 5625 5635 5645 5654 5659 5666 5671 5675 5681 5689 5691 5692 5693 5697 5697 5701 5701 5700 5703 5705
5567 5556 5549 5546 5545 5545 5542 5542 5544 5544 5544 5546 5546 5550 5554 5557 5561 5565 5569 5575 5580 5592 5600 5609 5612 5618 5630 5635 5643 5649 5661 5668 5673 5676 5682 5684 5686 5689 5688 5695 5700 5695 5700 5683 5695
5548 5543 5537 5538 5537 5534 5534 5536 5537 5537 5537 5540 5542 5544 5547 5550 5555 5562 5567 5572 5579 5589 5598 5602 5610 5613 5622 5634 5642 5648 5655 5663 5670 5670 5675 5677 5681 5684 5687 5689 5691 5684 5678 5695 5692
5536 5531 5525 5527 5527 5528 5528 5532 5531 5532 5534 5537 5538 5538 5542 5549 5552 5558 5564 5567 5575 5584 5594 5598 5606 5615 5618 5627 5636 5644 5653 5656 5660 5662 5667 5673 5677 5680 5682 5686 5685 5684 5685 5688 5692
5530 5524 5522 5519 5521 5524 5526 5526 5526 5530 5531 5533 5535 5538 5541 5545 5547 5553 5559 5564 5571 5578 5583 5596 5605 5614 5616 5621 5631 5641 5649 5651 5655 5654 5663 5664 5665 5673 5675 5676 5677 5680 5684 5685 5685
5526 5521 5519 5519 5519 5521 5522 5523 5526 5527 5530 5530 5530 5529 5534 5541 5545 5550 5556 5561 5568 5576 5583 5593 5604 5609 5613 5618 5622 5635 5642 5646 5651 5655 5661 5664 5662 5665 5667 5669 5669 5670 5677 5678 5675